Yunyao-1 39

operational
NORAD ID: 62731 Int'l Des: NNA 2025-013 Owner: YYAO Country: CN
LEOCIRCULARRETROGRADESSO

Über Yunyao-1 39

Beschreibung wird geladen...

Live-Position

3D-Globus wird geladen...

Nächste Überflüge

Höhenverlauf

Altitude vs Time

uPlot chart will show altitude changes over time

Zweizeiliger Elementsatz

1 62731U 25013C 25340.48929636 .00007695 00000-0 48289-3 0 9992
2 62731 97.6318 144.9251 0013816 316.8797 43.1349 15.09507071 48248
Epoch: 6. Dez. 2025 • Age: 16 hours

Aktueller Status

Höhe 557.5 km
Geschwindigkeit 7.58 km/s
Subsatellitenpunkt 62.55°N, 158.23°W
Startdatum 20. Jan. 2025
Alter 0.8 years
Typ other

Technische Details

Klassifizierung Payload
Masse 50.00 kg
Trockenmasse 50.00 kg
Gesamtmasse 50.00 kg
Länge 2.00 m
Durchmesser 1.50 m
Spannweite 5.00 m
Form Box + pan
Hersteller CGSTL
Bus-Typ YY-1
Phasenstatus In Orbit
Besitzer/Staat YYAO/CN

Große Konstellationen

Loading constellations...